User: anonymous   Login
Location: Arrien
(42.8963°N, 1.0429°E)
Time: 05:58:25
(UTC+00:00)
Language:

CUTE-I - Orbit

View from above orbital plane
View from above orbital plane
View from above satellite
View from above satellite

Ground track
Ground track

The orbit is defined by the following mean orbital elements,

1 27844U          26108.95785611 +.00000000 +00000-0 +10756-3 0 00009
2 27844  98.6763 118.2581 0009574   5.2865 354.8413 14.24297878    03
Epoch (UTC): 18 April 2026 22:59:18
Eccentricity: 0.0009574
inclination: 98.6763°
perigee height: 804 km
apogee height: 818 km
right ascension of ascending node: 118.2581°
argument of perigee: 5.2865°
revolutions per day: 14.24297878
mean anomaly at epoch: 354.8413°

The dashed part of the orbit path shows where the satellite is in the earth's shadow,  

DLR